period_start,C,m1,H,J0,J1,J2,J3,J4,J5,JA,JB,JC,JD,JJ,JK,JN,#
2018-03-15 00:00:27,0.08,4.04,0.00,13.64,16.89,20.31,14.59,47.03,1024.41,2065.06,2141.13,2230.10,2546.63,600.10,620.29,40.17,0000 0000 0000 0000 000000
2018-03-15 00:05:29,0.05,4.05,0.00,13.64,16.89,20.34,14.53,46.99,1024.42,2065.08,2140.33,2229.82,2545.99,600.09,620.20,40.22,0000 0000 0000 0000 000000
2018-03-15 00:10:30,0.08,4.05,0.00,13.64,16.88,20.33,14.50,47.11,1024.36,2065.09,2139.53,2229.06,2545.21,600.00,620.18,40.27,0000 0000 0000 0000 000000
2018-03-15 00:15:31,0.14,4.06,0.00,13.64,16.87,20.35,14.47,47.06,1024.30,2065.42,2138.27,2228.25,2544.28,599.95,619.98,40.32,0000 0000 0000 0000 000000
2018-03-15 00:20:33,0.05,4.06,0.00,13.65,16.87,20.37,14.48,47.07,1024.21,2065.42,2137.30,2227.82,2543.70,599.81,619.90,40.37,0000 0000 0000 0000 000000
2018-03-15 00:25:34,0.07,4.06,0.00,13.66,16.86,20.36,14.42,47.09,1024.19,2065.43,2136.66,2227.08,2543.00,599.86,619.77,40.42,0000 0000 0000 0000 000000
2018-03-15 00:30:35,0.04,4.07,0.00,13.67,16.84,20.32,14.52,47.08,1024.05,2065.52,2135.99,2226.91,2542.23,599.73,619.83,40.47,0000 0000 0000 0000 000000
2018-03-15 00:35:36,0.08,4.07,0.00,13.67,16.84,20.32,14.59,47.17,1023.98,2065.66,2135.19,2226.15,2541.84,600.23,620.19,40.52,0000 0000 0000 0000 000000
2018-03-15 00:40:38,0.05,4.07,0.00,13.69,16.84,20.28,14.62,47.11,1023.95,2065.58,2134.47,2225.90,2541.06,600.27,620.10,40.57,0000 0000 0000 0000 000000
2018-03-15 00:45:39,0.08,4.08,0.00,13.69,16.84,20.29,14.53,47.16,1023.94,2065.74,2133.82,2225.19,2540.61,600.05,619.96,40.62,0000 0000 0000 0000 000000
2018-03-15 00:50:40,0.05,4.08,0.00,13.72,16.84,20.29,14.53,47.13,1023.94,2065.85,2133.03,2224.97,2539.99,600.08,619.86,40.67,0000 0000 0000 0000 000000
2018-03-15 00:55:41,0.06,4.08,0.00,13.73,16.84,20.29,14.41,47.13,1023.92,2065.78,2132.23,2224.22,2539.24,599.78,619.51,40.72,0000 0000 0000 0000 000000
2018-03-15 01:00:43,0.05,4.09,0.00,13.74,16.84,20.25,14.55,47.27,1023.92,2065.73,2131.50,2223.96,2538.72,600.25,619.96,40.77,0000 0000 0000 0000 000000
2018-03-15 01:05:44,0.07,4.09,0.00,13.76,16.84,20.33,14.59,47.18,1023.88,2065.80,2130.76,2223.21,2538.00,600.03,619.69,40.83,0000 0000 0000 0000 000000
2018-03-15 01:10:45,0.04,4.09,0.00,13.77,16.84,20.28,14.48,47.19,1023.66,2065.64,2129.95,2222.85,2537.19,599.91,619.36,40.88,0000 0000 0000 0000 000000
2018-03-15 01:15:46,0.07,4.10,0.00,13.79,16.84,20.27,14.45,47.09,1023.55,2065.70,2129.10,2222.09,2536.73,600.09,619.50,40.93,0000 0000 0000 0000 000000
2018-03-15 01:20:47,0.06,4.10,0.00,13.83,16.85,20.26,14.54,47.08,1023.52,2065.77,2128.42,2221.79,2536.02,600.15,619.35,40.98,0000 0000 0000 0000 000000
2018-03-15 01:25:49,0.05,4.10,0.00,13.85,16.87,20.29,14.48,47.05,1023.51,2065.64,2127.66,2221.06,2535.34,599.95,619.01,41.03,0000 0000 0000 0000 000000
2018-03-15 01:30:50,0.03,4.10,0.00,13.88,16.87,20.28,14.47,47.19,1023.46,2065.36,2126.85,2220.59,2534.65,600.18,619.33,41.08,0000 0000 0000 0000 000000
2018-03-15 01:35:51,0.04,4.11,0.00,13.89,16.89,20.28,14.48,47.20,1023.47,2065.23,2125.99,2220.01,2533.98,600.08,619.17,41.13,0000 0000 0000 0000 000000
2018-03-15 01:40:53,0.08,4.11,0.00,13.92,16.89,20.27,14.49,47.24,1023.45,2065.15,2125.13,2219.43,2533.14,600.10,619.17,41.18,0000 0000 0000 0000 000000
2018-03-15 01:45:54,0.05,4.11,0.00,13.93,16.90,20.29,14.51,47.14,1023.45,2065.15,2124.44,2218.99,2532.54,600.15,619.27,41.23,0000 0000 0000 0000 000000
2018-03-15 01:50:55,0.06,4.12,0.00,13.95,16.92,20.29,14.55,47.19,1023.45,2065.11,2123.71,2218.29,2531.94,599.85,618.87,41.28,0000 0000 0000 0000 000000
2018-03-15 01:55:56,0.05,4.12,0.00,13.97,16.93,20.32,14.46,47.13,1023.45,2065.09,2122.92,2217.94,2531.12,600.17,619.07,41.33,0000 0000 0000 0000 000000
2018-03-15 02:00:58,0.08,4.12,0.00,13.99,16.94,20.36,14.43,47.12,1023.45,2065.04,2122.01,2217.15,2530.43,599.79,618.65,41.38,0000 0000 0000 0000 000000
2018-03-15 02:05:59,0.07,4.13,0.00,14.02,16.96,20.34,14.39,47.15,1023.45,2065.02,2121.10,2216.62,2529.69,599.73,618.44,41.43,0000 0000 0000 0000 000000
2018-03-15 02:11:00,0.06,4.13,0.00,14.04,16.97,20.38,14.54,47.24,1023.45,2065.02,2120.24,2216.01,2528.98,599.79,618.58,41.48,0000 0000 0000 0000 000000
2018-03-15 02:16:02,0.09,4.13,0.00,14.06,16.98,20.39,14.46,47.13,1023.45,2065.01,2119.46,2215.40,2528.15,599.89,618.61,41.53,0000 0000 0000 0000 000000
2018-03-15 02:21:03,0.05,4.14,0.00,14.07,16.99,20.39,14.44,47.12,1023.45,2065.00,2118.63,2214.95,2527.59,600.00,618.57,41.58,0000 0000 0000 0000 000000
2018-03-15 02:26:04,0.07,4.14,0.00,14.09,17.01,20.43,14.47,47.15,1023.47,2065.00,2117.82,2214.19,2526.83,599.99,618.69,41.63,0000 0000 0000 0000 000000
2018-03-15 02:31:05,0.06,4.14,0.00,14.12,17.02,20.43,14.43,47.25,1023.46,2065.00,2116.99,2213.77,2526.03,599.88,618.59,41.68,0000 0000 0000 0000 000000
2018-03-15 02:36:07,0.08,4.15,0.00,14.13,17.04,20.46,14.52,47.17,1023.46,2065.00,2116.11,2213.05,2525.26,600.26,618.92,41.74,0000 0000 0000 0000 000000
2018-03-15 02:41:08,0.08,4.15,0.00,14.16,17.06,20.46,14.43,47.19,1023.45,2065.00,2115.23,2212.45,2524.54,599.83,618.23,41.79,0000 0000 0000 0000 000000
2018-03-15 02:46:09,0.05,4.15,0.00,14.18,17.07,20.50,14.51,47.17,1023.45,2065.00,2114.32,2211.97,2523.79,600.12,618.27,41.84,0000 0000 0000 0000 000000
2018-03-15 02:51:11,0.08,4.16,0.00,14.21,17.09,20.51,14.38,47.15,1023.45,2064.99,2113.55,2211.14,2523.00,599.78,618.16,41.89,0000 0000 0000 0000 000000
2018-03-15 02:56:12,0.07,4.16,0.00,14.23,17.11,20.50,14.42,47.23,1023.45,2064.98,2112.73,2210.66,2522.14,599.74,618.18,41.94,0000 0000 0000 0000 000000
2018-03-15 03:01:14,0.05,4.17,0.00,14.25,17.13,20.53,14.48,47.22,1023.45,2064.97,2111.92,2210.02,2521.43,600.20,618.68,41.99,0000 0000 0000 0000 000000
2018-03-15 03:06:15,0.08,4.17,0.00,14.27,17.14,20.53,14.51,47.23,1023.46,2064.91,2111.07,2209.30,2520.71,599.98,618.36,42.04,0000 0000 0000 0000 000000
2018-03-15 03:11:17,0.04,4.17,0.00,14.30,17.17,20.59,14.48,47.32,1023.46,2064.80,2110.38,2208.87,2519.99,600.11,618.25,42.09,0000 0000 0000 0000 000000
2018-03-15 03:16:18,0.05,4.18,0.00,14.32,17.19,20.59,14.41,47.10,1023.46,2064.58,2109.53,2208.09,2519.19,599.89,618.00,42.14,0000 0000 0000 0000 000000
2018-03-15 03:21:19,0.06,4.18,0.00,14.33,17.21,20.62,14.49,47.15,1023.46,2064.36,2108.70,2207.60,2518.46,599.94,617.96,42.19,0000 0000 0000 0000 000000
2018-03-15 03:26:20,0.03,4.18,0.00,14.36,17.23,20.64,14.46,47.22,1023.46,2064.17,2107.89,2206.99,2517.78,599.97,618.14,42.24,0000 0000 0000 0000 000000
2018-03-15 03:31:21,0.07,4.18,0.00,14.38,17.24,20.64,14.53,47.32,1023.47,2064.08,2107.01,2206.24,2516.97,600.27,618.31,42.29,0000 0000 0000 0000 000000
2018-03-15 03:36:23,0.08,4.19,0.00,14.40,17.27,20.69,14.39,47.28,1023.46,2064.01,2106.13,2205.64,2516.09,599.74,617.82,42.34,0000 0000 0000 0000 000000
2018-03-15 03:41:24,0.07,4.19,0.00,14.43,17.28,20.68,14.49,47.35,1023.47,2064.01,2105.31,2205.02,2515.35,600.17,618.10,42.39,0000 0000 0000 0000 000000
2018-03-15 03:46:25,0.08,4.19,0.00,14.45,17.30,20.70,14.54,47.27,1023.48,2064.01,2104.55,2204.39,2514.71,600.12,618.06,42.44,0000 0000 0000 0000 000000
2018-03-15 03:51:26,0.04,4.20,0.00,14.47,17.32,20.69,14.46,47.17,1023.49,2064.00,2103.77,2203.95,2513.92,600.01,617.88,42.49,0000 0000 0000 0000 000000
2018-03-15 03:56:28,0.08,4.20,0.00,14.50,17.34,20.73,14.50,47.05,1023.50,2064.00,2102.95,2203.16,2513.08,600.25,618.07,42.55,0000 0000 0000 0000 000000
2018-03-15 04:01:29,0.07,4.21,0.00,14.52,17.37,20.75,14.48,47.08,1023.48,2063.99,2102.08,2202.73,2512.30,600.25,618.02,42.60,0000 0000 0000 0000 000000
2018-03-15 04:06:30,0.06,4.21,0.00,14.57,17.39,20.77,14.46,47.10,1023.47,2063.98,2101.25,2202.04,2511.78,600.05,617.71,42.65,0000 0000 0000 0000 000000
2018-03-15 04:11:32,0.08,4.21,0.00,14.58,17.41,20.79,14.40,47.12,1023.52,2063.95,2100.50,2201.45,2510.96,599.62,617.23,42.70,0000 0000 0000 0000 000000
2018-03-15 04:16:33,0.02,4.21,0.00,14.60,17.43,20.79,14.51,47.16,1023.53,2063.69,2099.66,2200.96,2510.11,600.12,617.74,42.75,0000 0000 0000 0000 000000
2018-03-15 04:21:34,0.05,4.22,0.00,14.62,17.46,20.83,14.42,47.13,1023.55,2063.45,2098.89,2200.15,2509.42,599.77,617.50,42.80,0000 0000 0000 0000 000000
2018-03-15 04:26:36,0.04,4.22,0.00,14.64,17.48,20.86,14.56,47.13,1023.56,2063.29,2098.05,2199.86,2508.79,600.06,617.60,42.85,0000 0000 0000 0000 000000
2018-03-15 04:31:37,0.05,4.22,0.00,14.67,17.50,20.88,14.39,47.23,1023.52,2063.07,2097.13,2199.05,2507.96,599.85,617.30,42.90,0000 0000 0000 0000 000000
2018-03-15 04:36:38,0.08,4.23,0.00,14.68,17.53,20.90,14.36,47.05,1023.52,2063.02,2096.27,2198.38,2507.10,599.80,617.27,42.95,0000 0000 0000 0000 000000
2018-03-15 04:41:39,0.05,4.23,0.00,14.69,17.55,20.93,14.45,47.23,1023.48,2063.00,2095.47,2197.91,2506.36,600.04,617.34,43.00,0000 0000 0000 0000 000000
2018-03-15 04:46:41,0.07,4.23,0.00,14.72,17.57,20.94,14.46,47.17,1023.52,2063.00,2094.71,2197.16,2505.77,600.03,617.33,43.05,0000 0000 0000 0000 000000
2018-03-15 04:51:42,0.05,4.24,0.00,14.74,17.59,20.96,14.41,47.13,1023.54,2063.00,2093.92,2196.76,2505.02,599.79,617.10,43.10,0000 0000 0000 0000 000000
2018-03-15 04:56:43,0.07,4.24,0.00,14.76,17.62,20.97,14.36,47.13,1023.57,2063.00,2093.07,2196.04,2504.23,599.67,616.91,43.15,0000 0000 0000 0000 000000
2018-03-15 05:01:44,0.07,4.24,0.00,14.76,17.63,20.99,14.41,47.09,1023.62,2063.00,2092.19,2195.66,2503.68,599.95,617.18,43.20,0000 0000 0000 0000 000000
2018-03-15 05:06:45,0.05,4.25,0.00,14.78,17.66,21.03,14.44,47.19,1023.67,2062.96,2091.49,2195.01,2502.95,600.32,617.57,43.25,0000 0000 0000 0000 000000
2018-03-15 05:11:47,0.08,4.25,0.00,14.79,17.68,21.06,14.50,47.08,1023.79,2062.96,2090.74,2194.39,2502.14,600.21,617.49,43.30,0000 0000 0000 0000 000000
2018-03-15 05:16:48,0.03,4.25,0.00,14.80,17.69,21.06,14.43,47.12,1023.64,2062.78,2089.83,2193.87,2501.39,600.08,617.43,43.35,0000 0000 0000 0000 000000
2018-03-15 05:21:49,0.05,4.26,0.00,14.82,17.72,21.09,14.38,47.07,1023.58,2062.44,2089.00,2193.08,2500.71,599.64,616.85,43.40,0000 0000 0000 0000 000000
2018-03-15 05:26:50,0.04,4.26,0.00,14.84,17.74,21.08,14.43,47.13,1023.66,2062.32,2088.16,2192.73,2500.00,599.94,617.12,43.45,0000 0000 0000 0000 000000
2018-03-15 05:31:51,0.06,4.26,0.00,14.85,17.75,21.13,14.49,47.13,1023.79,2062.10,2087.41,2192.03,2499.21,599.95,617.19,43.51,0000 0000 0000 0000 000000
2018-03-15 05:36:53,0.07,4.26,0.00,14.87,17.77,21.15,14.43,47.17,1023.65,2062.04,2086.62,2191.51,2498.59,599.95,617.04,43.56,0000 0000 0000 0000 000000
2018-03-15 05:41:54,0.03,4.27,0.00,14.88,17.79,21.16,14.44,47.17,1023.62,2062.01,2085.87,2191.00,2497.95,600.22,617.23,43.61,0000 0000 0000 0000 000000
2018-03-15 05:46:55,0.09,4.27,0.00,14.89,17.81,21.17,14.52,47.16,1023.81,2062.02,2085.03,2190.39,2497.13,600.17,617.45,43.66,0000 0000 0000 0000 000000
2018-03-15 05:51:56,0.05,4.27,0.00,14.90,17.82,21.18,14.38,47.03,1023.93,2062.00,2084.20,2189.97,2496.54,599.89,617.10,43.71,0000 0000 0000 0000 000000
2018-03-15 05:56:57,0.07,4.28,0.00,14.92,17.84,21.18,14.36,46.98,1023.94,2061.99,2083.51,2189.23,2495.96,599.97,617.11,43.76,0000 0000 0000 0000 000000
2018-03-15 06:01:59,0.06,4.28,0.00,14.94,17.86,21.21,14.47,47.10,1023.94,2061.99,2082.69,2188.81,2495.13,599.83,616.90,43.81,0000 0000 0000 0000 000000
2018-03-15 06:07:00,0.06,4.28,0.00,14.94,17.87,21.22,14.33,47.03,1023.94,2061.98,2081.95,2188.05,2494.68,599.75,616.87,43.86,0000 0000 0000 0000 000000
2018-03-15 06:12:01,0.06,4.29,0.00,14.94,17.89,21.24,14.43,47.04,1023.94,2061.98,2081.10,2187.72,2493.99,600.04,617.16,43.91,0000 0000 0000 0000 000000
2018-03-15 06:17:03,0.07,4.29,0.00,14.94,17.90,21.27,14.38,46.98,1023.94,2061.97,2080.37,2187.02,2493.17,600.11,617.16,43.96,0000 0000 0000 0000 000000
2018-03-15 06:22:04,0.07,4.29,0.00,14.94,17.92,21.30,14.37,47.14,1023.94,2061.92,2079.55,2186.49,2492.55,599.66,616.73,44.01,0000 0000 0000 0000 000000
2018-03-15 06:27:05,0.03,4.30,0.00,14.97,17.93,21.28,14.49,47.06,1023.94,2061.93,2078.84,2186.00,2491.99,600.34,617.46,44.06,0000 0000 0000 0000 000000
2018-03-15 06:32:06,0.07,4.30,0.00,14.97,17.94,21.31,14.36,47.13,1023.94,2061.86,2078.02,2185.39,2491.17,599.59,616.64,44.11,0000 0000 0000 0000 000000
2018-03-15 06:37:08,0.03,4.30,0.00,14.96,17.95,21.33,14.41,47.05,1023.94,2061.69,2077.17,2184.96,2490.60,599.94,616.87,44.16,0000 0000 0000 0000 000000
2018-03-15 06:42:09,0.08,4.31,0.00,14.97,17.97,21.34,14.46,47.01,1023.94,2061.59,2076.35,2184.18,2489.96,600.16,617.16,44.21,0000 0000 0000 0000 000000
2018-03-15 06:47:10,0.02,4.31,0.00,14.97,17.97,21.35,14.37,47.00,1023.94,2061.55,2075.71,2183.91,2489.12,599.76,616.94,44.26,0000 0000 0000 0000 000000
2018-03-15 06:52:12,0.05,4.31,0.00,14.95,17.99,21.39,14.42,46.98,1023.93,2061.17,2074.96,2183.08,2488.49,600.06,617.16,44.31,0000 0000 0000 0000 000000
2018-03-15 06:57:13,0.03,4.31,0.00,14.95,17.99,21.40,14.43,47.13,1023.91,2061.07,2074.10,2182.82,2487.98,600.15,617.23,44.36,0000 0000 0000 0000 000000
2018-03-15 07:02:15,0.08,4.32,0.00,14.95,18.00,21.41,14.43,47.41,1023.93,2061.05,2073.40,2182.06,2487.22,599.66,616.72,44.42,0000 0000 0000 0000 000000
2018-03-15 07:07:16,0.07,4.32,0.00,14.96,18.01,21.37,14.47,47.42,1023.94,2061.03,2072.63,2181.68,2486.56,600.40,617.46,44.47,0000 0000 0000 0000 000000
2018-03-15 07:12:17,0.04,4.32,0.00,14.97,18.02,21.40,14.44,47.29,1023.92,2061.03,2071.99,2181.03,2486.01,599.81,616.95,44.52,0000 0000 0000 0000 000000
2018-03-15 07:17:19,0.07,4.33,0.00,14.99,18.02,21.40,14.51,47.16,1023.87,2061.02,2071.21,2180.74,2485.33,600.10,617.10,44.57,0000 0000 0000 0000 000000
2018-03-15 07:22:20,0.06,4.33,0.00,14.99,18.03,21.40,14.44,47.13,1023.88,2061.01,2070.45,2180.04,2484.78,599.75,616.79,44.62,0000 0000 0000 0000 000000
2018-03-15 07:27:21,0.05,4.33,0.00,14.99,18.04,21.42,14.45,47.17,1023.87,2061.01,2069.85,2179.71,2484.05,599.69,616.64,44.67,0000 0000 0000 0000 000000
2018-03-15 07:32:23,0.06,4.34,0.00,15.02,18.04,21.42,14.50,47.15,1023.91,2061.01,2069.06,2179.03,2483.51,600.19,617.11,44.72,0000 0000 0000 0000 000000
2018-03-15 07:37:24,0.04,4.34,0.00,15.02,18.05,21.45,14.49,47.06,1023.91,2061.01,2068.39,2178.84,2482.99,600.16,617.17,44.77,0000 0000 0000 0000 000000
2018-03-15 07:42:25,0.07,4.34,0.00,15.01,18.07,21.47,14.38,47.07,1023.90,2061.00,2067.82,2178.06,2482.18,599.76,616.92,44.82,0000 0000 0000 0000 000000
2018-03-15 07:47:26,0.05,4.34,0.00,15.02,18.07,21.44,14.41,47.13,1023.81,2061.00,2067.03,2177.82,2481.73,600.11,616.92,44.87,0000 0000 0000 0000 000000
2018-03-15 07:52:27,0.07,4.35,0.00,15.02,18.07,21.45,14.40,47.21,1023.83,2061.00,2066.38,2177.09,2481.04,599.78,616.64,44.92,0000 0000 0000 0000 000000
2018-03-15 07:57:28,0.03,4.35,0.00,15.05,18.09,21.48,14.41,47.17,1023.78,2061.00,2065.82,2176.92,2480.54,599.80,616.50,44.97,0000 0000 0000 0000 000000
2018-03-15 08:02:30,0.07,4.35,0.00,15.07,18.09,21.47,14.41,47.08,1023.82,2061.00,2065.04,2176.14,2480.00,599.96,616.79,45.02,0000 0000 0000 0000 000000
2018-03-15 08:07:31,0.06,4.36,0.00,15.08,18.09,21.45,14.40,47.02,1023.88,2060.99,2064.26,2175.82,2479.18,600.13,616.92,45.07,0000 0000 0000 0000 000000
2018-03-15 08:12:33,0.08,4.36,0.00,15.09,18.10,21.46,14.45,47.17,1023.89,2060.98,2063.59,2175.06,2478.69,599.88,616.78,45.12,0000 0000 0000 0000 000000
2018-03-15 08:17:34,0.02,4.36,0.00,15.09,18.12,21.47,14.38,47.08,1023.83,2060.98,2062.92,2174.98,2478.02,599.96,616.67,45.17,0000 0000 0000 0000 000000
2018-03-15 08:22:35,0.09,4.37,0.00,15.12,18.12,21.49,14.48,47.14,1023.75,2060.98,2062.09,2174.32,2477.56,600.03,616.67,45.22,0000 0000 0000 0000 000000
2018-03-15 08:27:36,0.04,4.37,0.00,15.13,18.12,21.49,14.42,47.23,1023.79,2060.98,2061.41,2173.98,2476.92,599.81,616.39,45.28,0000 0000 0000 0000 000000
2018-03-15 08:32:37,0.07,4.37,0.00,15.16,18.12,21.48,14.49,47.11,1023.76,2060.97,2060.89,2173.25,2476.13,600.38,616.93,45.33,0000 0000 0000 0000 000000
2018-03-15 08:37:38,0.04,4.37,0.00,15.24,18.14,21.48,14.50,47.02,1023.74,2060.96,2060.09,2173.00,2475.82,600.37,616.76,45.38,0000 0000 0000 0000 000000
2018-03-15 08:42:40,0.08,4.38,0.00,15.29,18.14,21.52,14.35,47.06,1023.69,2060.96,2059.47,2172.47,2475.05,599.69,615.92,45.43,0000 0000 0000 0000 000000
2018-03-15 08:47:41,0.03,4.38,0.00,15.27,18.14,21.55,14.45,47.02,1023.70,2060.95,2058.90,2172.00,2474.49,599.96,616.24,45.48,0000 0000 0000 0000 000000
2018-03-15 08:52:42,0.07,4.38,0.00,15.22,18.14,21.54,14.36,47.02,1023.69,2060.92,2058.09,2171.54,2473.97,599.87,616.18,45.53,0000 0000 0000 0000 000000
2018-03-15 08:57:44,0.07,4.39,0.00,15.16,18.14,21.55,14.37,47.12,1023.78,2060.95,2057.32,2171.01,2473.19,600.02,616.59,45.58,0000 0000 0000 0000 000000
2018-03-15 09:02:45,0.04,4.39,0.00,15.12,18.14,21.58,14.44,47.12,1023.82,2060.92,2056.80,2170.64,2472.79,599.89,616.56,45.63,0000 0000 0000 0000 000000
2018-03-15 09:07:46,0.05,4.39,0.00,15.08,18.14,21.57,14.42,47.04,1023.89,2060.86,2056.03,2170.02,2472.04,600.01,616.74,45.68,0000 0000 0000 0000 000000
2018-03-15 09:12:47,0.06,4.39,0.00,15.03,18.14,21.59,14.44,47.10,1023.78,2060.90,2055.36,2169.87,2471.67,600.24,617.03,45.73,0000 0000 0000 0000 000000
2018-03-15 09:17:49,0.05,4.40,0.00,14.99,18.14,21.56,14.42,46.99,1023.64,2060.86,2054.76,2169.08,2471.01,599.92,616.79,45.78,0000 0000 0000 0000 000000
2018-03-15 09:22:50,0.04,4.40,0.00,14.98,18.14,21.55,14.49,47.21,1023.63,2060.87,2054.02,2168.95,2470.35,600.02,616.82,45.83,0000 0000 0000 0000 000000
2018-03-15 09:27:51,0.07,4.40,0.00,14.96,18.14,21.53,14.35,47.03,1023.59,2060.87,2053.34,2168.22,2469.96,599.99,616.86,45.88,0000 0000 0000 0000 000000
2018-03-15 09:32:53,0.03,4.41,0.00,14.93,18.14,21.59,14.45,47.08,1023.62,2060.80,2052.87,2167.99,2469.20,600.26,617.09,45.93,0000 0000 0000 0000 000000
2018-03-15 09:37:54,0.06,4.41,0.00,14.92,18.14,21.54,14.43,47.07,1023.73,2060.87,2052.07,2167.63,2468.89,599.79,617.04,45.98,0000 0000 0000 0000 000000
2018-03-15 09:42:55,0.07,4.41,0.00,14.89,18.12,21.55,14.53,47.01,1023.85,2060.87,2051.41,2167.02,2468.09,600.03,617.24,46.03,0000 0000 0000 0000 000000
2018-03-15 09:47:57,0.02,4.41,0.00,14.88,18.12,21.54,14.42,46.94,1023.88,2060.84,2050.93,2166.81,2467.90,599.96,617.16,46.08,0000 0000 0000 0000 000000
2018-03-15 09:52:58,0.08,4.42,0.00,14.87,18.12,21.55,14.50,46.96,1023.92,2060.92,2050.13,2166.08,2467.11,600.10,617.37,46.13,0000 0000 0000 0000 000000
2018-03-15 09:58:00,0.03,4.42,0.00,14.84,18.11,21.50,14.50,47.13,1023.90,2060.96,2049.65,2165.98,2466.85,600.36,617.76,46.18,0000 0000 0000 0000 000000
2018-03-15 10:03:01,0.06,4.42,0.00,14.83,18.09,21.60,14.43,47.06,1023.92,2060.92,2049.01,2165.35,2466.09,599.87,617.13,46.24,0000 0000 0000 0000 000000
2018-03-15 10:08:02,0.04,4.43,0.00,14.82,18.09,21.52,14.46,47.09,1023.91,2060.96,2048.32,2165.00,2465.96,600.01,617.35,46.29,0000 0000 0000 0000 000000
2018-03-15 10:13:03,0.05,4.43,0.00,14.79,18.09,21.52,14.44,47.09,1023.92,2060.98,2047.75,2164.83,2465.18,600.16,617.69,46.34,0000 0000 0000 0000 000000
2018-03-15 10:18:05,0.05,4.43,0.00,14.79,18.07,21.50,14.48,47.17,1023.89,2060.98,2047.04,2164.08,2464.86,599.69,617.16,46.39,0000 0000 0000 0000 000000
2018-03-15 10:23:06,0.03,4.43,0.00,14.78,18.07,21.51,14.42,47.08,1023.84,2060.99,2046.76,2163.99,2464.14,599.92,617.37,46.44,0000 0000 0000 0000 000000
2018-03-15 10:28:08,0.06,4.44,0.00,14.77,18.06,21.48,14.44,47.12,1023.74,2060.98,2046.01,2163.46,2463.84,600.01,617.48,46.49,0000 0000 0000 0000 000000
2018-03-15 10:33:09,0.05,4.44,0.00,14.76,18.04,21.49,14.42,47.01,1023.71,2060.98,2045.31,2163.00,2463.06,599.89,617.34,46.54,0000 0000 0000 0000 000000
2018-03-15 10:38:10,0.05,4.44,0.00,14.74,18.04,21.50,14.45,47.00,1023.65,2060.99,2044.77,2162.74,2462.55,599.84,617.20,46.59,0000 0000 0000 0000 000000
2018-03-15 10:43:12,0.05,4.45,0.00,14.73,18.03,21.48,14.47,46.99,1023.66,2060.99,2044.03,2162.05,2462.02,600.13,617.59,46.64,0000 0000 0000 0000 000000
2018-03-15 10:48:13,0.05,4.45,0.00,14.72,18.02,21.47,14.41,46.91,1023.62,2060.99,2043.45,2161.96,2461.55,599.90,617.33,46.69,0000 0000 0000 0000 000000
2018-03-15 10:53:14,0.05,4.45,0.00,14.71,18.02,21.47,14.45,47.02,1023.56,2060.99,2042.87,2161.27,2461.00,599.96,617.37,46.74,0000 0000 0000 0000 000000
2018-03-15 10:58:15,0.05,4.45,0.00,14.70,17.99,21.45,14.44,46.99,1023.53,2060.99,2042.07,2161.00,2460.49,599.79,617.21,46.79,0000 0000 0000 0000 000000
2018-03-15 11:03:17,0.05,4.46,0.00,14.70,17.99,21.43,14.51,47.01,1023.55,2061.00,2041.52,2160.70,2460.00,600.07,617.43,46.84,0000 0000 0000 0000 000000
2018-03-15 11:08:18,0.05,4.46,0.00,14.69,17.98,21.41,14.51,47.10,1023.49,2061.00,2040.96,2160.06,2459.44,600.07,617.47,46.89,0000 0000 0000 0000 000000
2018-03-15 11:13:19,0.03,4.46,0.00,14.67,17.97,21.41,14.42,46.97,1023.46,2061.00,2040.13,2159.97,2458.99,599.88,617.22,46.94,0000 0000 0000 0000 000000
2018-03-15 11:18:20,0.07,4.46,0.00,14.67,17.96,21.42,14.44,47.07,1023.45,2061.00,2039.67,2159.40,2458.55,599.96,617.45,46.99,0000 0000 0000 0000 000000
2018-03-15 11:23:22,0.03,4.47,0.00,14.68,17.94,21.44,14.43,47.12,1023.45,2061.01,2038.94,2159.01,2458.00,600.07,617.47,47.04,0000 0000 0000 0000 000000
2018-03-15 11:28:23,0.07,4.47,0.00,14.67,17.94,21.40,14.47,47.19,1023.45,2061.02,2038.17,2158.66,2457.45,599.91,617.43,47.10,0000 0000 0000 0000 000000
2018-03-15 11:33:24,0.04,4.47,0.00,14.64,17.93,21.41,14.47,47.26,1023.44,2061.02,2037.63,2158.04,2456.99,600.23,617.69,47.15,0000 0000 0000 0000 000000
2018-03-15 11:38:25,0.04,4.48,0.00,14.63,17.92,21.40,14.49,47.41,1023.36,2061.02,2036.98,2157.92,2456.28,600.08,617.49,47.20,0000 0000 0000 0000 000000
2018-03-15 11:43:27,0.07,4.48,0.00,14.62,17.91,21.29,14.62,47.41,1023.28,2061.05,2036.17,2157.18,2455.99,600.55,617.92,47.25,0000 0000 0000 0000 000000
2018-03-15 11:48:28,0.04,4.48,0.00,14.62,17.89,21.31,14.51,47.33,1023.16,2061.06,2035.71,2156.99,2455.28,600.01,617.39,47.30,0000 0000 0000 0000 000000
2018-03-15 11:53:29,0.04,4.48,0.00,14.59,17.89,21.35,14.47,47.23,1023.01,2061.05,2035.01,2156.64,2454.92,599.83,617.07,47.35,0000 0000 0000 0000 000000
2018-03-15 11:58:31,0.10,4.49,0.00,14.59,17.87,21.28,14.43,47.18,1022.96,2061.20,2034.32,2156.03,2454.15,600.08,617.38,47.40,0000 0000 0000 0000 000000
2018-03-15 12:03:32,0.01,4.49,0.00,14.57,17.86,21.30,14.37,47.14,1022.96,2061.24,2033.83,2155.90,2453.93,599.86,617.24,47.45,0000 0000 0000 0000 000000
2018-03-15 12:08:34,0.11,4.49,0.00,14.55,17.84,21.25,14.50,47.23,1022.95,2061.46,2033.06,2155.19,2453.17,600.11,617.44,47.50,0000 0000 0000 0000 000000
2018-03-15 12:13:35,0.04,4.50,0.00,14.54,17.84,21.24,14.55,47.32,1022.96,2061.59,2032.51,2154.99,2452.87,600.18,617.57,47.55,0000 0000 0000 0000 000000
2018-03-15 12:18:37,0.07,4.50,0.00,14.52,17.82,21.25,14.57,47.28,1022.96,2061.54,2031.98,2154.51,2452.10,600.30,617.77,47.60,0000 0000 0000 0000 000000
2018-03-15 12:23:38,0.07,4.50,0.00,14.51,17.81,21.25,14.42,47.33,1022.96,2061.74,2031.13,2154.02,2451.88,599.96,617.34,47.65,0000 0000 0000 0000 000000
2018-03-15 12:28:39,0.06,4.51,0.00,14.49,17.79,21.24,14.51,47.35,1022.95,2061.93,2030.52,2153.90,2451.11,600.28,617.61,47.70,0000 0000 0000 0000 000000
2018-03-15 12:33:40,0.05,4.51,0.00,14.48,17.78,21.19,14.44,47.24,1022.93,2061.98,2029.97,2153.24,2450.93,599.86,617.30,47.75,0000 0000 0000 0000 000000
2018-03-15 12:38:42,0.06,4.51,0.00,14.45,17.77,21.18,14.44,47.24,1022.93,2061.97,2029.17,2152.99,2450.17,599.90,617.47,47.80,0000 0000 0000 0000 000000
2018-03-15 12:43:43,0.06,4.52,0.00,14.45,17.75,21.13,14.38,47.17,1022.91,2061.99,2028.56,2152.60,2449.90,599.49,617.02,47.85,0000 0000 0000 0000 000000
2018-03-15 12:48:44,0.04,4.52,0.00,14.43,17.74,21.16,14.47,47.06,1022.87,2061.98,2027.94,2152.04,2449.11,599.83,617.54,47.90,0000 0000 0000 0000 000000
2018-03-15 12:53:45,0.05,4.52,0.00,14.39,17.72,21.15,14.49,47.18,1022.82,2061.99,2027.11,2151.85,2448.79,599.99,617.59,47.95,0000 0000 0000 0000 000000